Location: Audrecelles
(50.8240°N, 1.5923°E)
Time: 03:23:39
(UTC+00:00)

Cosmos 44 - Pass Details

Date: 18 October 2025
Orbit: 576 x 774 km, 65.1° (Epoch: 13 November)

Event Time Altitude Azimuth Distance (km) Brightness Sun altitude
Exits shadow 04:24:08 11° 326° (NW) 2,090 5.5 -19.3°
Maximum altitude 04:28:46 52° 42° (NE) 917 4.2 -18.5°
Drops below altitude 10° 04:33:53 10° 119° (ESE) 2,282 6.8 -17.7°
Sets 04:36:23 0° 124° (SE) 3,221 7.5 -17.3°
